1339027233142,2.82681
1339027293142,2.82490
1339027353142,2.80252
1339027413142,2.85951
1339027473142,2.80428
1339027533142,2.78048
1339027593142,2.80052
1339027653142,2.83287
1339027713142,2.78801
1339027773142,2.79908
1339027833142,2.78879
1339027893142,2.71744
1339027953142,2.77445
1339028013142,2.77272
1339028073142,2.80195
1339028133142,2.75328
1339028193142,2.78911
1339028253142,2.80397
1339028313142,2.81524
1339028373142,2.78944
1339028433142,2.79357
1339028493142,2.77312
1339028553142,2.77440
1339028613142,2.75778
1339028673142,2.80183
1339028733142,2.79965
1339028793142,2.78852
1339028853142,2.81458
1339028913142,2.79436
1339028973142,2.83841
1339029033142,2.83012
1339029093142,2.78078
1339029153142,2.78013
1339029213142,2.78462
1339029273142,2.81885
1339029333142,2.79537
1339029393142,2.75398
1339029453142,2.79356
1339029513142,2.79529
1339029573142,2.82938
1339029633142,2.85157
1339029693142,2.81057
1339029753142,2.80842
1339029813142,2.77802
1339029873142,2.79077
1339029933142,2.78988
1339029993142,2.78215
1339030053142,2.84657
1339030113142,2.82006
1339030173142,2.83207
1339030233142,2.82695
1339030293142,2.81509
1339030353142,2.80165
1339030413142,2.84489
1339030473142,2.80570
1339030533142,2.79247
1339030593142,2.83401
1339030653142,2.82038
1339030713142,2.82639
1339030773142,2.82399
1339030833153,2.81360
1339030893153,2.81764
1339030953153,2.75617
1339031013153,2.73482
1339031073153,2.84220
1339031133153,2.80234
1339031193153,2.80991
1339031253153,2.79142
1339031313153,2.78862
1339031373153,2.79536
1339031433153,2.80513
1339031493153,2.76832
1339031553153,2.78340
1339031613153,2.78483
1339031673153,2.79768
1339031733153,2.80360
1339031793153,2.78696
1339031853153,2.82032
1339031913153,2.77153
1339031973153,2.77960
1339032033153,2.79593
1339032093153,2.75578
1339032153153,2.79610
1339032213153,2.75519
1339032273153,2.75415
1339032333153,2.77187
1339032393153,2.76925
1339032453153,2.74732
1339032513153,2.75465
1339032573153,2.72381
1339032633153,2.76360
1339032693153,2.73175
1339032753153,2.73498
1339032813153,2.74958
1339032873153,2.72998
1339032933153,2.75250
1339032993153,2.72490
1339033053153,2.71182
1339033113153,2.73769
1339033173153,2.75419
1339033233153,2.70556
1339033293153,2.73819
1339033353153,2.72084
1339033413153,2.70215
1339033473153,2.72061
1339033533153,2.74354
1339033593153,2.75251
1339033653153,2.73897
1339033713153,2.74005
1339033773153,2.73810
1339033833153,2.73296
1339033893153,2.71208
1339033953153,2.74648
1339034013153,2.72213
1339034073153,2.71423
1339034133153,2.71788
1339034193153,2.72393
1339034253153,2.71929
1339034313153,2.73280
1339034373153,2.71015
1339034433163,2.73787
1339034493163,2.76090
1339034553163,2.75245
1339034613163,2.72996
1339034673163,2.73429
1339034733163,2.73031
1339034793163,2.73018
1339034853163,2.73958
1339034913163,2.73523
1339034973163,2.72802
1339035033163,2.73792
1339035093163,2.71378
1339035153163,2.74390
1339035213163,2.72767
1339035273163,2.72924
1339035333163,2.75396
1339035393163,2.73840
1339035453163,2.72268
1339035513163,2.71772
1339035573163,2.69802
1339035633163,2.71594
1339035693163,2.72547
1339035753163,2.72227
1339035813163,2.72844
1339035873163,2.69185
1339035933163,2.71556
1339035993163,2.69735
1339036053163,2.71637
1339036113163,2.73577
1339036173163,2.71656
1339036233163,2.71909
1339036293163,2.73850
1339036353163,2.71406
1339036413163,2.71117
1339036473163,2.74886
1339036533163,2.73861
1339036593163,2.71458
1339036653163,2.74245
1339036713163,2.73335
1339036773163,2.73434
1339036833163,2.74667
1339036893163,2.72486
1339036953163,2.74719
1339037013163,2.73108
1339037073163,2.73859
1339037133163,2.74785
1339037193163,2.73604
1339037253163,2.71066
1339037313163,2.73949
1339037373163,2.74635
1339037433163,2.75555
1339037493163,2.75425
1339037553163,2.72666
1339037613163,2.73044
1339037673163,2.74032
1339037733163,2.74394
1339037793163,2.74268
1339037853163,2.75024
1339037913163,2.73287
1339037973163,2.72106
1339038033173,2.73546
1339038093173,2.74298
1339038153173,2.74260
1339038213173,2.74445
1339038273173,2.72421
1339038333173,2.73553
1339038393173,2.74416
1339038453173,2.75017
1339038513173,2.70282
1339038573173,2.73002
1339038633173,2.74302
1339038693173,2.70893
1339038753173,2.71010
1339038813173,2.73697
1339038873173,2.69716
1339038933173,2.73591
1339038993173,2.70633
1339039053173,2.70412
1339039113173,2.71488
1339039173173,2.73213
1339039233173,2.69713
1339039293173,2.69335
1339039353173,2.70745
1339039413173,2.70647
1339039473173,2.73037
1339039533173,2.71707
1339039593173,2.70716
1339039653173,2.73953
1339039713173,2.72469
1339039773173,2.72353
1339039833173,2.71127
1339039893173,2.70794
1339039953173,2.75846
1339040013173,2.71632
1339040073173,2.72060
1339040133173,2.72384
1339040193173,2.73725
1339040253173,2.72776
1339040313173,2.70344
1339040373173,2.71707
1339040433173,2.72631
1339040493173,2.73263
1339040553173,2.72434
1339040613173,2.73085
1339040673173,2.72837
1339040733173,2.73535
1339040793173,2.69975
1339040853173,2.71722
1339040913173,2.73723
1339040973173,2.71920
1339041033173,2.72183
1339041093173,2.70565
1339041153173,2.71607
1339041213173,2.71691
1339041273173,2.70228
1339041333173,2.69568
1339041393173,2.71118
1339041453173,2.69185
1339041513173,2.72810
1339041573173,2.71869
1339041633182,2.70618
1339041693182,2.69945
1339041753182,2.71121
1339041813182,2.70439
1339041873182,2.70997
1339041933182,2.71614
1339041993182,2.72809
1339042053182,2.70745
1339042113182,2.72958
1339042173182,2.79733
1339042233182,2.68646
1339042293182,2.70954
1339042353182,2.70280
1339042413182,2.71777
1339042473182,2.72551
1339042533182,2.71208
1339042593182,2.72240
1339042653182,2.71607
1339042713182,2.73005
1339042773182,2.72891
1339042833182,2.71830
1339042893182,2.72277
1339042953182,2.70435
1339043013182,2.73009
1339043073182,2.72333
1339043133182,2.74466
1339043193182,2.70438
1339043253182,2.70486
1339043313182,2.71939
1339043373182,2.70406
1339043433182,2.72838
1339043493182,2.74108
1339043553182,2.72057
1339043613182,2.73063
1339043673182,2.72759
1339043733182,2.70816
1339043793182,2.72720
1339043853182,2.73865
1339043913182,2.73057
1339043973182,2.70519
1339044033182,2.69998
1339044093182,2.71363
1339044153182,2.72006
1339044213182,2.74089
1339044273182,2.70805
1339044333182,2.73830
1339044393182,2.72067
1339044453182,2.73633
1339044513182,2.71896
1339044573182,2.74382
1339044633182,2.73329
1339044693182,2.72304
1339044753182,2.73570
1339044813182,2.74354
1339044873182,2.71210
1339044933182,2.72687
1339044993182,2.73874
1339045053182,2.74300
1339045113182,2.71507
1339045173182,2.71510
1339045233192,2.75063
1339045293192,2.72043
1339045353192,2.76169
1339045413192,2.74489
1339045473192,2.73237
1339045533192,2.74031
1339045593192,2.76880
1339045653192,2.73209
1339045713192,2.74186
1339045773192,2.75190
1339045833192,2.74998
1339045893192,2.72857
1339045953192,2.75515
1339046013192,2.72227
1339046073192,2.74202
1339046133192,2.75352
1339046193192,2.74948
1339046253192,2.73224
1339046313192,2.71272
1339046373192,2.74036
1339046433192,2.72638
1339046493192,2.73517
1339046553192,2.72415
1339046613192,2.76212
1339046673192,2.75078
1339046733192,2.74659
1339046793192,2.75356
1339046853192,2.73674
1339046913192,2.73287
1339046973192,2.72528
1339047033192,2.74086
1339047093192,2.76295
1339047153192,2.73016
1339047213192,2.72820
1339047273192,2.75191
1339047333192,2.76861
1339047393192,2.74806
1339047453192,2.76117
1339047513192,2.74212
1339047573192,2.77317
1339047633192,2.75966
1339047693192,2.75356
1339047753192,2.76249
1339047813192,2.76552
1339047873192,2.74099
1339047933192,2.77011
1339047993192,2.75853
1339048053192,2.75700
1339048113192,2.77283
1339048173192,2.75759
1339048233192,2.73214
1339048293192,2.74040
1339048353192,2.76176
1339048413192,2.75302
1339048473192,2.74526
1339048533192,2.76937
1339048593192,2.74758
1339048653192,2.75862
1339048713192,2.78529
1339048773192,2.79760
1339048833201,2.80520
1339048893201,2.79646
1339048953201,2.79926
1339049013201,2.79421
1339049073201,2.78582
1339049133201,2.78281
1339049193201,2.79277
1339049253201,2.81724
1339049313201,2.80916
1339049373201,2.78252
1339049433201,2.77689
1339049493201,2.78124
1339049553201,2.79440
1339049613201,2.79567
1339049673201,2.79286
1339049733201,2.80276
1339049793201,2.80975
1339049853201,2.85083
1339049913201,2.80746
1339049973201,2.77882
1339050033201,2.76754
1339050093201,2.80327
1339050153201,2.78456
1339050213201,2.76977
1339050273201,2.76968
1339050333201,2.78852
1339050393201,2.77027
1339050453201,2.77128
1339050513201,2.77665
1339050573201,2.78075
1339050633201,2.77518
1339050693201,2.73758
1339050753201,2.77629
1339050813201,2.74068
1339050873201,2.85414
1339050933201,2.74645
1339050993201,2.73208
1339051053201,2.76302
1339051113201,2.74960
1339051173201,2.73785
1339051233201,2.74968
1339051293201,2.74412
1339051353201,2.76199
1339051413201,2.73578
1339051473201,2.73338
1339051533201,2.75741
1339051593201,2.74113
1339051653201,2.74449
1339051713201,2.71156
1339051773201,2.76077
1339051833201,2.73962
1339051893201,2.73969
1339051953201,2.74259
1339052013201,2.72999
1339052073201,2.75503
1339052133201,2.71880
1339052193201,2.75653
1339052253201,2.73621
1339052313201,2.73525
1339052373201,2.74554
1339052433211,2.78015
1339052493211,2.75539
1339052553211,2.71856
1339052613211,2.74386
1339052673211,2.72304
1339052733211,2.74789
1339052793211,2.74920
1339052853211,2.75581
1339052913211,2.76724
1339052973211,2.75535
1339053033211,2.74356
1339053093211,2.75460
1339053153211,2.72077
1339053213211,2.72563
1339053273211,2.75357
1339053333211,2.72669
1339053393211,2.74825
1339053453211,2.74853
1339053513211,2.73586
1339053573211,2.72567
1339053633211,2.73221
1339053693211,2.71036
1339053753211,2.73539
1339053813211,2.73509
1339053873211,2.73497
1339053933211,2.75570
1339053993211,2.71994
1339054053211,2.73171
1339054113211,2.73278
1339054173211,2.73587
1339054233211,2.73759
1339054293211,2.72720
1339054353211,2.73393
1339054413211,2.73378
1339054473211,2.72252
1339054533211,2.73101
1339054593211,2.74843
1339054653211,2.72874
1339054713211,2.70316
1339054773211,2.72260
1339054833211,2.72755
1339054893211,2.73281
1339054953211,2.73155
1339055013211,2.74205
1339055073211,2.73265
1339055133211,2.73139
1339055193211,2.74626
1339055253211,2.72736
1339055313211,2.74806
1339055373211,2.71038
1339055433211,2.74579
1339055493211,2.72794
1339055553211,2.71357
1339055613211,2.72384
1339055673211,2.70569
1339055733211,2.73063
1339055793211,2.74000
1339055853211,2.71656
1339055913211,2.71497
1339055973211,2.71954
1339056033220,2.71138
1339056093220,2.73218
1339056153220,2.72325
1339056213220,2.75370
1339056273220,2.73119
1339056333220,2.71246
1339056393220,2.72466
1339056453220,2.73510
1339056513220,2.72332
1339056573220,2.75134
1339056633220,2.72078
1339056693220,2.73767
1339056753220,2.72466
1339056813220,2.74213
1339056873220,2.72973
1339056933220,2.71983
1339056993220,2.74214
1339057053220,2.74028
1339057113220,2.74879
1339057173220,2.71840
1339057233220,2.72391
1339057293220,2.72074
1339057353220,2.73267
1339057413220,2.73593
1339057473220,2.70921
1339057533220,2.75312
1339057593220,2.72304
1339057653220,2.73384
1339057713220,2.72790
1339057773220,2.74955
1339057833220,2.73577
1339057893220,2.72901
1339057953220,2.75433
1339058013220,2.76525
1339058073220,2.74333
1339058133220,2.74723
1339058193220,2.76541
1339058253220,2.74597
1339058313220,2.76348
1339058373220,2.73407
1339058433220,2.74084
1339058493220,2.74954
1339058553220,2.74047
1339058613220,2.73904
1339058673220,2.72272
1339058733220,2.73067
1339058793220,2.73620
1339058853220,2.73245
1339058913220,2.75641
1339058973220,2.73606
1339059033220,2.75457
1339059093220,2.73702
1339059153220,2.74417
1339059213220,2.71500
1339059273220,2.74138
1339059333220,2.73233
1339059393220,2.74283
1339059453220,2.72690
1339059513220,2.72920
1339059573220,2.71890
1339059633229,2.75674
1339059693229,2.73853
1339059753229,2.74304
1339059813229,2.70446
1339059873229,2.73430
1339059933229,2.73419
1339059993229,2.72694
1339060053229,2.71500
1339060113229,2.74457
1339060173229,2.73488
1339060233229,2.71591
1339060293229,2.73329
1339060353229,2.74342
1339060413229,2.70755
1339060473229,2.70853
1339060533229,2.70969
1339060593229,2.69819
1339060653229,2.72096
1339060713229,2.71717
1339060773229,2.71179
1339060833229,2.71487
1339060893229,2.72762
1339060953229,2.71496
1339061013229,2.69116
1339061073229,2.69954
1339061133229,2.72408
1339061193229,2.70678
1339061253229,2.71620
1339061313229,2.70562
1339061373229,2.70604
1339061433229,2.71755
1339061493229,2.71002
1339061553229,2.70121
1339061613229,2.70298
1339061673229,2.69599
1339061733229,2.71588
1339061793229,2.72255
1339061853229,2.70808
1339061913229,2.69996
1339061973229,2.69109
1339062033229,2.70265
1339062093229,2.69073
1339062153229,2.70102
1339062213229,2.68934
1339062273229,2.71521
1339062333229,2.68138
1339062393229,2.69846
1339062453229,2.72194
1339062513229,2.72760
1339062573229,2.71054
1339062633229,2.69151
1339062693229,2.69975
1339062753229,2.72142
1339062813229,2.71412
1339062873229,2.71009
1339062933229,2.70348
1339062993229,2.72125
1339063053229,2.69952
1339063113229,2.73862
1339063173229,2.73232
1339063233238,2.72657
1339063293238,2.85466
1339063353238,2.72789
1339063413238,2.71731
1339063473238,2.72817
1339063533238,2.72906
1339063593238,2.73124
1339063653238,2.72579
1339063713238,2.71539
1339063773238,2.68867
1339063833238,2.72089
1339063893238,2.70195
1339063953238,2.71571
1339064013238,2.72027
1339064073238,2.71807
1339064133238,2.72758
1339064193238,2.72052
1339064253238,2.71638
1339064313238,2.71028
1339064373238,2.71114
1339064433238,2.73157
1339064493238,2.71364
1339064553238,2.70618
1339064613238,2.71482
1339064673238,2.70344
1339064733238,2.70565
1339064793238,2.69512
1339064853238,2.70538
1339064913238,2.71568
1339064973238,2.72191
1339065033238,2.72754
1339065093238,2.70575
1339065153238,2.69074
1339065213238,2.69518
1339065273238,2.72793
1339065333238,2.72306
1339065393238,2.71181
1339065453238,2.71443
1339065513238,2.70201
1339065573238,2.70380
1339065633238,2.72085
1339065693238,2.71460
1339065753238,2.72440
1339065813238,2.75125
1339065873238,2.72500
1339065933238,2.71254
1339065993238,2.71017
1339066053238,2.73941
1339066113238,2.73050
1339066173238,2.72743
1339066233238,2.71749
1339066293238,2.73737
1339066353238,2.74163
1339066413238,2.66511
1339066473238,2.75078
1339066533238,2.72666
1339066593238,2.71592
1339066653238,2.71345
1339066713238,2.74221
1339066773238,2.77632
1339066833247,2.73503
1339066893247,2.73579
1339066953247,2.74837
1339067013247,2.72933
1339067073247,2.72311
1339067133247,2.75578
1339067193247,2.75183
1339067253247,2.75660
1339067313247,2.74781
1339067373247,2.74462
1339067433247,2.74560
1339067493247,2.75222
1339067553247,2.73861
1339067613247,2.74163
1339067673247,2.73396
1339067733247,2.71984
1339067793247,2.74854
1339067853247,2.73744
1339067913247,2.73640
1339067973247,2.73525
1339068033247,2.73124
1339068093247,2.73029
1339068153247,2.73638
1339068213247,2.73899
1339068273247,2.72055
1339068333247,2.73773
1339068393247,2.73505
1339068453247,2.75095
1339068513247,2.73055
1339068573247,2.73658
1339068633247,2.73446
1339068693247,2.75229
1339068753247,2.72693
1339068813247,2.73337
1339068873247,2.72849
1339068933247,2.75525
1339068993247,2.74942
1339069053247,2.74480
1339069113247,2.76163
1339069173247,2.73080
1339069233247,2.75653
1339069293247,2.76946
1339069353247,2.75103
1339069413247,2.74222
1339069473247,2.77409
1339069533247,2.75028
1339069593247,2.76210
1339069653247,2.74425
1339069713247,2.73343
1339069773247,2.74747
1339069833247,2.75449
1339069893247,2.76642
1339069953247,2.74669
1339070013247,2.75768
1339070073247,2.78085
1339070133247,2.75591
1339070193247,2.74246
1339070253247,2.75209
1339070313247,2.76869
1339070373247,2.76760
1339070433256,2.79555
1339070493256,2.77108
1339070553257,2.74996
1339070613257,2.76877
1339070673257,2.76820
1339070733257,2.74748
1339070793257,2.76262
1339070853257,2.77336
1339070913257,2.78349
1339070973256,2.76737
1339071033256,2.79486
1339071093256,2.76181
1339071153256,2.75930
1339071213256,2.78060
1339071273256,2.77720
1339071333256,2.78768
1339071393256,2.76912
1339071453256,2.82886
1339071513256,2.81233
1339071573257,2.81339
1339071633257,2.78876
1339071693256,2.81207
1339071753256,2.79720
1339071813256,2.82447
1339071873256,2.81288
1339071933257,2.79227
1339071993257,2.84340
1339072053257,2.82403
1339072113257,2.84342
1339072173257,2.83307
1339072233257,2.83537
1339072293257,2.81535
1339072353256,2.84053
1339072413256,2.81722
1339072473256,2.83872
1339072533256,2.86389
1339072593256,2.84013
1339072653256,2.84903
1339072713256,2.82096
1339072773256,2.84437
1339072833256,2.80891
1339072893256,2.85541
1339072953257,2.83048
1339073013256,2.82986
1339073073256,2.83166
1339073133256,2.82716
1339073193256,2.84809
1339073253257,2.83978
1339073313257,2.83197
1339073373257,2.83340
1339073433257,2.84245
1339073493257,2.82431
1339073553257,2.84403
1339073613257,2.81552
1339073673256,2.82811
1339073733256,2.84213
1339073793256,2.83729
1339073853256,2.83049
1339073913256,2.84776
1339073973256,2.87470
1339074033266,2.82725
1339074093266,2.86126
1339074153266,2.85147
1339074213266,2.84865
1339074273266,2.88145
1339074333266,2.90884
1339074393266,2.85014
1339074453266,2.79696
1339074513266,2.82635
1339074573266,2.86796
1339074633266,2.82697
1339074693266,2.86236
1339074753266,2.83553
1339074813266,2.85785
1339074873266,2.84800
1339074933266,2.84009
1339074993266,2.85531
1339075053266,2.86713
1339075113266,2.83393
1339075173266,2.84581
1339075233266,2.84094
1339075293266,2.83316
1339075353266,2.88533
1339075413266,2.86588
1339075473266,2.86617
1339075533266,2.83602
1339075593266,2.83735
1339075653266,2.84985
1339075713266,2.84818
1339075773266,2.85745
1339075833266,2.84069
1339075893266,2.82408
1339075953266,2.80941
1339076013266,2.84495
1339076073266,2.84405
1339076133266,2.84241
1339076193266,2.89447
1339076253266,2.99958
1339076313266,2.87048
1339076373266,2.88860
1339076433266,2.87800
1339076493266,2.86971
1339076553266,2.85813
1339076613266,2.87035
1339076673266,2.87626
1339076733266,2.86248
1339076793266,2.85810
1339076853266,2.82343
1339076913266,2.89852
1339076973266,2.83398
1339077033266,2.84720
1339077093266,2.90450
1339077153266,2.88073
1339077213266,2.88045
1339077273266,2.86364
1339077333266,2.83162
1339077393266,2.86257
1339077453266,2.87113
1339077513266,2.88309
1339077573266,2.88555
1339077633275,2.87620
1339077693275,2.88730
1339077753275,2.90825
1339077813275,2.87285
1339077873275,2.85451
1339077933275,2.86138
1339077993275,2.84411
1339078053275,2.87397
1339078113275,2.87370
1339078173275,2.90108
1339078233275,2.89644
1339078293275,2.90953
1339078353275,2.89954
1339078413275,2.86189
1339078473275,2.87606
1339078533275,2.86476
1339078593275,2.89698
1339078653275,2.85675
1339078713275,2.88249
1339078773275,2.93372
1339078833275,2.90453
1339078893275,2.90652
1339078953275,2.92223
1339079013275,2.89555
1339079073275,2.88840
1339079133275,2.89605
1339079193275,2.89466
1339079253275,2.95109
1339079313275,2.89893
1339079373275,2.91086
1339079433275,2.86772
1339079493275,2.89114
1339079553275,2.93062
1339079613275,2.92517
1339079673275,2.92152
1339079733275,2.92878
1339079793275,2.91578
1339079853275,2.97091
1339079913275,2.93324
1339079973275,2.94810
1339080033275,2.93786
1339080093275,2.96894
1339080153275,2.94637
1339080213275,2.93738
1339080273275,2.91454
1339080333275,2.95142
1339080393275,2.92916
1339080453275,2.94813
1339080513275,2.92747
1339080573275,2.95465
1339080633275,2.93708
1339080693275,2.89205
1339080753275,2.95245
1339080813275,2.94131
1339080873275,2.91512
1339080933275,2.94151
1339080993275,2.91531
1339081053275,2.91591
1339081113275,2.88727
1339081173275,2.87703
1339081233284,2.90387
1339081293284,2.91227
1339081353284,2.83274
1339081413284,2.87963
1339081473284,2.87281
1339081533284,2.86932
1339081593284,2.88565
1339081653284,2.87299
1339081713284,2.87397
1339081773284,2.89228
1339081833284,2.90354
1339081893284,2.90073
1339081953284,2.87172
1339082013284,2.88959
1339082073284,2.83738
1339082133284,2.86381
1339082193284,2.84952
1339082253284,2.87792
1339082313284,2.84870
1339082373284,2.85712
1339082433284,2.79535
1339082493284,2.87452
1339082553284,2.77738
1339082613284,2.85978
1339082673284,2.83517
1339082733284,2.86543
1339082793284,2.88776
1339082853284,2.88425
1339082913284,2.87116
1339082973284,2.83988
1339083033284,2.87232
1339083093284,2.96938
1339083153284,2.87388
1339083213284,2.86391
1339083273284,2.85290
1339083333284,2.90615
1339083393284,2.86915
1339083453284,2.92187
1339083513284,2.91782
1339083573284,2.95669
1339083633284,2.98920
1339083693284,2.96731
1339083753284,2.97993
1339083813284,2.98623
1339083873284,2.95891
1339083933284,2.98758
1339083993284,2.98637
1339084053284,3.02146
1339084113284,3.02061
1339084173284,3.02119
1339084233284,3.00002
1339084293284,3.03473
1339084353284,3.01496
1339084413284,2.99917
1339084473284,3.02246
1339084533284,3.01876
1339084593284,3.00748
1339084653284,3.02250
1339084713284,2.99284
1339084773284,2.98520
1339084833294,2.98201
1339084893294,3.02813
1339084953294,3.00327
1339085013294,2.99796
1339085073294,2.99623
1339085133294,2.99527
1339085193294,2.99350
1339085253294,2.99227
1339085313294,3.05137
1339085373294,2.97962
1339085433294,2.96665
1339085493294,2.98658
1339085553294,2.92503
1339085613294,2.94688
1339085673294,2.96445
1339085733294,2.97573
1339085793294,2.94818
1339085853294,2.96128
1339085913294,2.93903
1339085973294,2.95345
1339086033294,2.96418
1339086093294,2.94253
1339086153294,2.99086
1339086213294,2.95563
1339086273294,2.92819
1339086333294,2.92705
1339086393294,2.91272
1339086453294,2.92995
1339086513294,2.89593
1339086573294,2.88126
1339086633294,2.90580
1339086693294,2.91400
1339086753294,2.88714
1339086813294,2.91510
1339086873294,2.90073
1339086933294,2.87284
1339086993294,2.90965
1339087053294,2.88461
1339087113294,2.87709
1339087173294,2.86425
1339087233294,2.89618
1339087293294,2.88421
1339087353294,2.92046
1339087413294,2.85981
1339087473294,2.87051
1339087533294,2.85577
1339087593294,2.84846
1339087653294,2.86194
1339087713294,2.89166
1339087773294,2.81940
1339087833294,2.83801
1339087893294,2.86840
1339087953294,2.83678
1339088013294,2.84711
1339088073294,2.85211
1339088133294,2.84154
1339088193294,2.81205
1339088253294,2.82078
1339088313294,2.80799
1339088373294,2.81741
1339088433303,2.82275
1339088493303,2.81385
1339088553303,2.77313
1339088613303,2.81518
1339088673303,2.82541
1339088733303,2.81599
1339088793303,2.76370
1339088853303,2.78326
1339088913303,2.82134
1339088973303,2.79015
1339089033303,2.81391
1339089093303,2.79296
1339089153303,2.78665
1339089213303,2.79175
1339089273303,2.82056
1339089333303,2.81984
1339089393303,2.75959
1339089453303,2.80773
1339089513303,2.78355
1339089573303,2.81321
1339089633303,2.78061
1339089693303,2.78896
1339089753303,2.80683
1339089813303,2.79539
1339089873303,2.77687
1339089933303,2.76140
1339089993303,2.78579
1339090053303,2.76400
1339090113303,2.77385
1339090173303,2.79430
1339090233303,2.77980
1339090293303,2.76502
1339090353303,2.77127
1339090413303,2.74558
1339090473303,2.77753
1339090533303,2.77885
1339090593303,2.78077
1339090653303,2.79476
1339090713303,2.75117
1339090773303,2.76314
1339090833303,2.76648
1339090893303,2.76618
1339090953303,2.76920
1339091013303,2.80348
1339091073303,2.74191
1339091133303,2.76300
1339091193303,2.77319
1339091253303,2.76278
1339091313303,2.75792
1339091373303,2.74769
1339091433303,2.57137
1339091493303,2.74452
1339091553303,2.75850
1339091613303,2.76410
1339091673303,2.73172
1339091733303,2.75744
1339091793303,2.76349
1339091853303,2.76007
1339091913303,2.74974
1339091973303,2.78139
1339092033313,2.73994
1339092093313,2.74212
1339092153313,2.75616
1339092213313,2.75286
1339092273313,2.74100
1339092333313,2.74249
1339092393313,2.75298
1339092453313,2.76451
1339092513313,2.73527
1339092573313,2.73313